Time,TemperatureF,DewpointF,PressureIn,WindDirection,WindDirectionDegrees,WindSpeedMPH,WindSpeedGustMPH,Humidity,HourlyPrecipIn,Conditions,Clouds,dailyrainin,SoftwareType,DateUTC
2013-10-21 00:22:00,44.0,26.0,30.06,West,277,0.0,0.0,48,0.00,,,0.00,,2013-10-21 06:22:00,
2013-10-21 00:42:00,44.0,26.0,30.06,West,277,0.0,2.0,48,0.00,,,0.00,,2013-10-21 06:42:00,
2013-10-21 00:52:00,44.0,25.0,30.06,West,277,0.0,0.0,47,0.00,,,0.00,,2013-10-21 06:52:00,
2013-10-21 01:11:00,44.0,26.0,30.06,West,277,0.0,0.0,48,0.00,,,0.00,,2013-10-21 07:11:00,
2013-10-21 01:22:00,43.0,25.0,30.07,West,277,0.0,1.0,49,0.00,,,0.00,,2013-10-21 07:22:00,
2013-10-21 01:42:00,42.0,25.0,30.07,West,277,0.0,0.0,51,0.00,,,0.00,,2013-10-21 07:42:00,
2013-10-21 02:21:00,41.0,27.0,30.08,WSW,255,5.0,7.0,57,0.00,,,0.00,,2013-10-21 08:21:00,
2013-10-21 02:42:00,42.0,27.0,30.08,WSW,256,6.0,10.0,56,0.00,,,0.00,,2013-10-21 08:42:00,
2013-10-21 05:42:00,40.0,28.0,30.10,WSW,246,2.0,4.0,62,0.00,,,0.00,,2013-10-21 11:42:00,
2013-10-21 06:42:00,39.0,28.0,30.11,WSW,242,4.0,7.0,65,0.00,,,0.00,,2013-10-21 12:42:00,
2013-10-21 10:43:00,45.0,30.0,30.16,WSW,243,6.0,8.0,56,0.00,,,0.00,,2013-10-21 16:43:00,
2013-10-21 10:53:00,46.0,30.0,30.17,WSW,252,5.0,8.0,54,0.00,,,0.00,,2013-10-21 16:53:00,
2013-10-21 11:12:00,46.0,30.0,30.17,West,263,5.0,7.0,53,0.00,,,0.00,,2013-10-21 17:12:00,
2013-10-21 11:42:00,48.0,32.0,30.17,WSW,240,4.0,7.0,53,0.00,,,0.00,,2013-10-21 17:42:00,
2013-10-21 11:53:00,48.0,30.0,30.17,West,259,5.0,7.0,50,0.00,,,0.00,,2013-10-21 17:53:00,
2013-10-21 12:12:00,49.0,31.0,30.17,SW,229,4.0,9.0,49,0.00,,,0.00,,2013-10-21 18:12:00,
2013-10-21 12:21:00,50.0,31.0,30.16,SW,233,5.0,7.0,47,0.00,,,0.00,,2013-10-21 18:21:00,
2013-10-21 12:42:00,50.0,31.0,30.16,SW,217,7.0,11.0,48,0.00,,,0.00,,2013-10-21 18:42:00,
2013-10-21 12:52:00,50.0,31.0,30.16,SW,234,4.0,10.0,48,0.00,,,0.00,,2013-10-21 18:52:00,
2013-10-21 13:11:00,51.0,31.0,30.16,West,264,6.0,10.0,47,0.00,,,0.00,,2013-10-21 19:11:00,
2013-10-21 13:21:00,51.0,32.0,30.16,WSW,237,8.0,12.0,48,0.00,,,0.00,,2013-10-21 19:21:00,
2013-10-21 13:42:00,52.0,33.0,30.16,WSW,237,6.0,10.0,48,0.00,,,0.00,,2013-10-21 19:42:00,
2013-10-21 13:52:00,52.0,32.0,30.16,WSW,246,5.0,12.0,46,0.00,,,0.00,,2013-10-21 19:52:00,
2013-10-21 14:11:00,52.0,31.0,30.15,West,273,7.0,11.0,45,0.00,,,0.00,,2013-10-21 20:11:00,
2013-10-21 14:21:00,52.0,33.0,30.15,WSW,240,4.0,9.0,48,0.00,,,0.00,,2013-10-21 20:21:00,
2013-10-21 14:52:00,53.0,32.0,30.15,West,259,4.0,10.0,45,0.00,,,0.00,,2013-10-21 20:52:00,
2013-10-21 15:22:00,54.0,31.0,30.15,West,268,7.0,10.0,41,0.00,,,0.00,,2013-10-21 21:22:00,
2013-10-21 15:54:00,55.0,29.0,30.15,West,275,5.0,9.0,37,0.00,,,0.00,,2013-10-21 21:54:00,
2013-10-21 16:23:00,54.0,32.0,30.15,WNW,289,6.0,11.0,43,0.00,,,0.00,,2013-10-21 22:23:00,
2013-10-21 16:44:00,55.0,32.0,30.15,West,277,6.0,11.0,41,0.00,,,0.00,,2013-10-21 22:44:00,
2013-10-21 16:53:00,55.0,32.0,30.15,West,277,6.0,11.0,41,0.00,,,0.00,,2013-10-21 22:53:00,
2013-10-21 17:03:00,55.0,32.0,30.15,West,277,6.0,11.0,41,0.00,,,0.00,,2013-10-21 23:03:00,
2013-10-21 17:12:00,55.0,32.0,30.15,West,277,6.0,11.0,41,0.00,,,0.00,,2013-10-21 23:12:00,
2013-10-21 21:22:00,49.0,31.0,30.16,SW,231,0.0,0.0,49,0.00,,,0.00,,2013-10-22 03:22:00,
2013-10-21 21:44:00,49.0,29.0,30.16,SW,231,0.0,0.0,46,0.00,,,0.00,,2013-10-22 03:44:00,